BEIDOU 9

Last updated on Aug. 8, 2020, 5:32 a.m. UTC

1 37763U 11038A   20220.36785372 -.00000069  00000-0  10000-3 0  9996
2 37763  54.4531 184.9100 0074123 225.7174 133.3707  1.00283859 33183
UTC
Height (km)
Latitude
Longitude
Inclination
Orbital Period
UTC large
Height (km)
Speed (km/s)
/
Latitude / Longitude
Inclination (degrees)
Orbital Period (minutes)
Azimuth
Elevation
Range (km)
Doppler Factor
iOS Compass Heading
iOS Angle

Next 30 passes for location: Hong Kong

Rise time Rise Azimuth (degrees) Set time Set Azimuth (degrees) Duration Max altitude (degrees)

No matching passes for this satellites